Lid_Strength_Index
3 3 3 3 3 3 3 3 3 3 3 3 3 3 3 3 3 4 5 3 1 -2 2 3 4 5 5 5 4 4 9 10 9 8 7 5 6 4 4 7 7 6 7 4 2
3 3 3 3 3 3 3 3 3 3 3 3 3 3 4 3 5 5 2 -1 -2 -2 3 5 5 5 7 7 6 7 9 9 6 6 6 5 5 5 6 6 6 5 4 3 3
3 3 3 3 3 3 4 4 4 4 3 4 3 3 3 4 6 5 -2 -2 -2 -1 2 3 4 5 7 7 8 7 9 7 6 5 5 6 6 6 6 7 6 5 5 4 4
3 3 4 3 3 3 4 4 4 4 4 4 4 4 3 5 10 3 -2 -2 -2 1 3 5 5 6 7 9 7 9 7 6 6 5 6 7 6 6 6 6 4 4 4 4 4
4 4 4 3 4 4 4 4 4 4 4 4 4 4 5 6 6 2 -2 -1 1 3 4 5 6 6 8 8 8 9 8 6 5 5 6 6 7 7 6 5 4 4 4 4 4
4 4 4 4 4 4 4 4 4 4 4 4 4 4 6 9 2 2 1 1 2 3 4 5 5 5 7 7 8 7 8 8 6 6 6 7 7 6 6 4 5 4 4 4 4
4 4 4 4 4 4 4 4 4 4 4 4 4 4 7 7 2 2 2 2 2 3 4 4 3 5 6 7 6 7 9 8 8 7 7 6 8 7 5 4 5 4 4 4 4
4 4 4 4 4 4 4 4 4 4 4 4 4 5 8 2 2 2 2 3 2 3 3 3 3 5 6 6 7 8 9 11 9 7 7 6 10 6 5 5 5 5 5 4 4
4 4 4 4 4 5 5 5 5 4 4 4 5 6 8 2 4 2 2 3 3 3 3 3 4 6 7 9 10 9 12 11 10 7 7 7 9 6 4 5 5 5 4 4 3
4 5 5 4 4 4 5 5 4 4 4 4 5 8 6 6 3 3 2 2 4 4 5 6 7 8 9 10 14 11 11 11 11 8 7 7 8 6 4 5 5 4 4 4 3
5 5 5 5 5 5 5 5 6 7 6 6 6 7 5 3 2 4 3 3 4 5 8 7 9 11 10 9 9 9 9 10 9 7 7 7 7 6 5 5 5 5 4 4 3
6 6 5 5 5 5 5 7 7 5 9 6 5 5 3 3 6 5 3 6 6 8 7 8 11 8 7 8 9 10 10 9 8 7 7 7 8 6 5 5 5 4 4 4 3
6 6 6 5 5 6 5 4 4 4 9 8 6 6 5 4 6 5 4 5 7 8 8 9 8 6 7 8 9 10 11 9 9 7 7 8 9 8 6 5 4 4 4 3 3
6 6 6 5 7 5 7 4 3 2 11 11 8 6 5 4 7 3 3 5 6 8 7 8 6 7 7 8 8 11 8 8 8 9 12 8 13 9 7 7 5 5 4 4 3
6 5 5 5 7 7 5 3 3 4 17 8 5 2 4 6 5 5 2 4 8 7 7 9 8 8 8 8 7 8 7 8 8 9 10 11 11 10 7 8 7 5 5 4 4
5 5 5 6 5 4 2 2 3 11 16 9 6 6 6 5 6 4 5 4 4 7 6 7 5 6 7 6 6 6 7 8 8 9 13 11 12 11 9 8 7 6 5 4 4
5 5 5 4 7 3 3 3 11 15 8 9 8 7 8 8 7 6 7 8 10 12 11 8 8 6 5 8 6 7 9 13 14 14 14 9 11 10 8 7 6 6 5 5 4
5 5 4 3 2 2 3 7 15 10 9 6 8 9 10 9 9 7 8 10 8 8 10 12 12 8 6 7 9 8 9 12 17 15 13 9 12 10 6 6 6 5 5 5 4
5 4 4 2 1 1 6 14 12 9 7 8 8 10 10 10 11 11 10 9 8 8 11 11 11 6 6 6 7 9 10 8 12 12 16 12 9 7 6 7 6 6 5 5 5
5 4 3 -0 -1 2 9 12 9 6 6 7 10 9 11 12 13 13 12 10 8 7 6 8 12 8 7 6 6 8 7 12 11 19 20 15 14 12 9 8 7 7 6 5 4
3 5 1 -1 -0 5 11 9 7 5 6 9 10 9 9 11 12 14 13 10 7 7 6 7 10 10 8 9 9 9 10 10 11 12 17 18 18 10 10 9 8 6 6 5 5
4 8 1 -0 8 7 9 7 7 7 6 7 7 8 9 10 11 13 13 11 7 8 12 7 10 16 12 7 6 7 9 10 15 16 13 14 16 9 9 9 7 8 5 5 4
7 5 1 2 12 11 8 9 7 8 9 9 9 7 8 9 12 10 11 8 8 9 11 8 10 16 14 10 8 9 8 8 10 11 16 16 15 8 7 7 6 7 7 5 4
6 9 5 5 5 9 10 10 10 6 8 7 8 7 9 10 9 10 11 9 8 9 7 8 10 13 17 13 11 11 9 9 10 15 15 13 12 9 8 7 7 7 7 5 4
5 8 6 10 8 7 7 8 10 11 7 7 9 9 10 12 11 11 11 10 9 8 8 9 12 12 12 11 12 12 10 10 11 11 14 11 12 9 8 7 7 6 5 5 5
7 8 6 8 7 8 8 9 10 9 9 10 11 10 10 13 12 13 11 11 11 9 10 9 13 12 13 12 11 12 12 10 10 10 10 10 11 9 6 6 6 5 5 5 5
3 3 6 8 8 8 8 9 9 8 8 7 9 10 10 9 8 8 7 8 9 10 10 10 12 13 16 12 13 16 13 12 10 8 8 12 9 7 8 7 7 6 5 5 5